contact:dominique.lefevre@mio.osupytheas.fr, maurice.libes@osupytheas.fr, didier.mallarino@osupytheas.fr
Project:EMSO http://www.emso-fr.org/EMSO-France
Depth: 2436.0 m
Title:EMSO Ligure Ouest : Data MII capteur CSTAR
DateTime,Latitude,Longitude,Instrument_Serial,Reference_Counts,Signal_Counts,Corrected_Signal_raw_counts,Calculated_Beam_c_inverse_meters,Internal_thermistor_counts
DateTime,Latitude,Longitude,Instrument_Serial,Reference_Counts,Signal_Counts,Corrected_Signal_raw_counts,Calculated_Beam_c_inverse_meters,Internal_thermistor_counts
2023-03-12T00:01:13,42.805,6.029,CST-1368DR,4356,4695,11450,01.241,551
2023-03-12T00:04:15,42.805,6.029,CST-1368DR,4356,4695,11449,01.242,551
2023-03-12T00:07:16,42.805,6.029,CST-1368DR,4356,4689,11435,01.246,551
2023-03-12T00:10:18,42.805,6.029,CST-1368DR,4356,4692,11441,01.244,551
2023-03-12T00:13:19,42.805,6.029,CST-1368DR,4356,4693,11444,01.243,551
2023-03-12T00:16:21,42.805,6.029,CST-1368DR,4356,4698,11457,01.239,551
2023-03-12T00:19:23,42.805,6.029,CST-1368DR,4356,4695,11449,01.242,551
2023-03-12T00:22:24,42.805,6.029,CST-1368DR,4356,4692,11441,01.244,551
2023-03-12T00:25:26,42.805,6.029,CST-1368DR,4356,4694,11446,01.243,551
2023-03-12T00:28:27,42.805,6.029,CST-1368DR,4356,4693,11443,01.244,551
2023-03-12T00:31:29,42.805,6.029,CST-1368DR,4356,4696,11450,01.241,551
2023-03-12T00:34:31,42.805,6.029,CST-1368DR,4356,4695,11448,01.242,551
2023-03-12T00:37:32,42.805,6.029,CST-1368DR,4356,4694,11447,01.242,551
2023-03-12T00:40:34,42.805,6.029,CST-1368DR,4356,4699,11458,01.238,551
2023-03-12T00:43:35,42.805,6.029,CST-1368DR,4356,4694,11446,01.243,551
2023-03-12T00:46:37,42.805,6.029,CST-1368DR,4356,4695,11448,01.242,551
2023-03-12T00:49:38,42.805,6.029,CST-1368DR,4356,4695,11448,01.242,551
2023-03-12T00:52:40,42.805,6.029,CST-1368DR,4356,4694,11445,01.243,551
2023-03-12T00:55:42,42.805,6.029,CST-1368DR,4356,4695,11449,01.242,551
2023-03-12T00:58:43,42.805,6.029,CST-1368DR,4356,4694,11446,01.243,551
2023-03-12T01:01:45,42.805,6.029,CST-1368DR,4356,4693,11445,01.243,551
2023-03-12T01:04:46,42.805,6.029,CST-1368DR,4356,4693,11445,01.243,551
2023-03-12T01:07:48,42.805,6.029,CST-1368DR,4356,4688,11431,01.248,551
2023-03-12T01:10:49,42.805,6.029,CST-1368DR,4356,4694,11445,01.243,551
2023-03-12T01:13:51,42.805,6.029,CST-1368DR,4356,4690,11436,01.246,551
2023-03-12T01:16:53,42.805,6.029,CST-1368DR,4356,4693,11445,01.243,551
2023-03-12T01:19:54,42.805,6.029,CST-1368DR,4356,4695,11450,01.241,551
2023-03-12T01:22:56,42.805,6.029,CST-1368DR,4356,4695,11448,01.242,551
2023-03-12T01:25:57,42.805,6.029,CST-1368DR,4356,4693,11445,01.243,551
2023-03-12T01:28:59,42.805,6.029,CST-1368DR,4356,4690,11436,01.246,551
2023-03-12T01:32:01,42.805,6.029,CST-1368DR,4356,4692,11442,01.244,551
2023-03-12T01:35:02,42.805,6.029,CST-1368DR,4356,4691,11439,01.245,551
2023-03-12T01:38:04,42.805,6.029,CST-1368DR,4356,4696,11452,01.241,551
2023-03-12T01:41:05,42.805,6.029,CST-1368DR,4356,4694,11445,01.243,551
2023-03-12T01:44:07,42.805,6.029,CST-1368DR,4356,4689,11434,01.247,551
2023-03-12T01:47:08,42.805,6.029,CST-1368DR,4356,4696,11451,01.241,551
2023-03-12T01:50:10,42.805,6.029,CST-1368DR,4356,4697,11453,01.240,551
2023-03-12T01:53:12,42.805,6.029,CST-1368DR,4356,4695,11450,01.241,551
2023-03-12T01:56:13,42.805,6.029,CST-1368DR,4356,4696,11451,01.241,551
2023-03-12T01:59:15,42.805,6.029,CST-1368DR,4356,4698,11456,01.239,551
2023-03-12T02:02:16,42.805,6.029,CST-1368DR,4356,4698,11456,01.239,551
2023-03-12T02:05:18,42.805,6.029,CST-1368DR,4356,4699,11458,01.238,551
2023-03-12T02:08:19,42.805,6.029,CST-1368DR,4356,4700,11460,01.238,551
2023-03-12T02:11:21,42.805,6.029,CST-1368DR,4356,4700,11461,01.237,551
2023-03-12T02:14:23,42.805,6.029,CST-1368DR,4356,4703,11467,01.235,551
2023-03-12T02:17:24,42.805,6.029,CST-1368DR,4356,4699,11459,01.238,551
2023-03-12T02:20:26,42.805,6.029,CST-1368DR,4356,4699,11458,01.238,551
2023-03-12T02:23:27,42.805,6.029,CST-1368DR,4356,4703,11469,01.235,551
2023-03-12T02:26:29,42.805,6.029,CST-1368DR,4356,4703,11468,01.235,551
2023-03-12T02:29:31,42.805,6.029,CST-1368DR,4356,4702,11466,01.236,551
2023-03-12T02:32:32,42.805,6.029,CST-1368DR,4356,4703,11467,01.235,551
2023-03-12T02:35:34,42.805,6.029,CST-1368DR,4356,4709,11482,01.230,551
2023-03-12T02:38:35,42.805,6.029,CST-1368DR,4356,4698,11457,01.239,551
2023-03-12T02:41:37,42.805,6.029,CST-1368DR,4356,4703,11467,01.235,551
2023-03-12T02:44:38,42.805,6.029,CST-1368DR,4356,4699,11458,01.238,551
2023-03-12T02:47:40,42.805,6.029,CST-1368DR,4356,4705,11474,01.233,551
2023-03-12T02:50:42,42.805,6.029,CST-1368DR,4356,4700,11461,01.237,551
2023-03-12T02:53:43,42.805,6.029,CST-1368DR,4356,4703,11467,01.235,551
2023-03-12T02:56:45,42.805,6.029,CST-1368DR,4356,4703,11468,01.235,551
2023-03-12T02:59:46,42.805,6.029,CST-1368DR,4356,4706,11475,01.233,551
2023-03-12T03:02:48,42.805,6.029,CST-1368DR,4356,4706,11477,01.232,551
2023-03-12T03:05:49,42.805,6.029,CST-1368DR,4356,4703,11469,01.235,551
2023-03-12T03:08:51,42.805,6.029,CST-1368DR,4356,4708,11480,01.231,551
2023-03-12T03:11:53,42.805,6.029,CST-1368DR,4356,4702,11466,01.236,551
2023-03-12T03:14:54,42.805,6.029,CST-1368DR,4356,4708,11481,01.230,551
2023-03-12T03:17:56,42.805,6.029,CST-1368DR,4356,4705,11473,01.233,551
2023-03-12T03:20:57,42.805,6.029,CST-1368DR,4356,4703,11469,01.235,551
2023-03-12T03:23:59,42.805,6.029,CST-1368DR,4356,4702,11466,01.236,551
2023-03-12T03:27:00,42.805,6.029,CST-1368DR,4356,4700,11462,01.237,551
2023-03-12T03:30:02,42.805,6.029,CST-1368DR,4356,4700,11461,01.237,551
2023-03-12T03:33:04,42.805,6.029,CST-1368DR,4355,4671,11393,01.261,551
2023-03-12T03:36:05,42.805,6.029,CST-1368DR,4355,4679,11413,01.254,551
2023-03-12T03:39:07,42.805,6.029,CST-1368DR,4355,4674,11399,01.259,551
2023-03-12T03:42:08,42.805,6.029,CST-1368DR,4355,4676,11405,01.257,551
2023-03-12T03:45:10,42.805,6.029,CST-1368DR,4356,4702,11466,01.236,551
2023-03-12T03:48:12,42.805,6.029,CST-1368DR,4356,4700,11460,01.238,551
2023-03-12T03:51:13,42.805,6.029,CST-1368DR,4356,4706,11475,01.233,551
2023-03-12T03:54:15,42.805,6.029,CST-1368DR,4356,4700,11461,01.237,551
2023-03-12T03:57:16,42.805,6.029,CST-1368DR,4356,4702,11466,01.236,551
2023-03-12T04:00:18,42.805,6.029,CST-1368DR,4356,4700,11460,01.238,551
2023-03-12T04:03:19,42.805,6.029,CST-1368DR,4356,4700,11460,01.238,551
2023-03-12T04:06:21,42.805,6.029,CST-1368DR,4356,4698,11455,01.239,551
2023-03-12T04:09:23,42.805,6.029,CST-1368DR,4356,4699,11458,01.238,551
2023-03-12T04:12:24,42.805,6.029,CST-1368DR,4356,4704,11470,01.234,551
2023-03-12T04:15:26,42.805,6.029,CST-1368DR,4356,4701,11464,01.236,551
2023-03-12T04:18:27,42.805,6.029,CST-1368DR,4356,4702,11467,01.235,551
2023-03-12T04:21:29,42.805,6.029,CST-1368DR,4355,4700,11463,01.237,551
2023-03-12T04:24:30,42.805,6.029,CST-1368DR,4356,4736,11549,01.207,551
2023-03-12T04:27:32,42.805,6.029,CST-1368DR,4356,4736,11548,01.207,551
2023-03-12T04:30:34,42.805,6.029,CST-1368DR,4356,4740,11558,01.204,551
2023-03-12T04:33:35,42.805,6.029,CST-1368DR,4356,4740,11558,01.204,551
2023-03-12T04:36:37,42.805,6.029,CST-1368DR,4356,4740,11558,01.204,551
2023-03-12T04:39:38,42.805,6.029,CST-1368DR,4356,4742,11563,01.202,551
2023-03-12T04:42:40,42.805,6.029,CST-1368DR,4356,4743,11566,01.201,551
2023-03-12T04:45:42,42.805,6.029,CST-1368DR,4356,4741,11561,01.203,551
2023-03-12T04:48:43,42.805,6.029,CST-1368DR,4356,4738,11553,01.205,551
2023-03-12T04:51:45,42.805,6.029,CST-1368DR,4356,4740,11559,01.203,551
2023-03-12T04:54:46,42.805,6.029,CST-1368DR,4356,4737,11551,01.206,551
2023-03-12T04:57:48,42.805,6.029,CST-1368DR,4356,4736,11549,01.207,551
2023-03-12T05:00:49,42.805,6.029,CST-1368DR,4356,4730,11534,01.212,551
2023-03-12T05:03:51,42.805,6.029,CST-1368DR,4356,4740,11559,01.203,551
2023-03-12T05:06:53,42.805,6.029,CST-1368DR,4356,4743,11567,01.201,551
2023-03-12T05:09:54,42.805,6.029,CST-1368DR,4356,4742,11564,01.202,551
2023-03-12T05:12:56,42.805,6.029,CST-1368DR,4356,4741,11560,01.203,551
2023-03-12T05:15:57,42.805,6.029,CST-1368DR,4356,4741,11560,01.203,551
2023-03-12T05:18:59,42.805,6.029,CST-1368DR,4356,4739,11556,01.204,551
2023-03-12T05:22:00,42.805,6.029,CST-1368DR,4356,4740,11558,01.204,551
2023-03-12T05:25:02,42.805,6.029,CST-1368DR,4356,4739,11556,01.204,551
2023-03-12T05:28:04,42.805,6.029,CST-1368DR,4356,4745,11570,01.200,551
2023-03-12T05:31:05,42.805,6.029,CST-1368DR,4356,4740,11559,01.203,551
2023-03-12T05:34:07,42.805,6.029,CST-1368DR,4356,4739,11555,01.205,551
2023-03-12T05:37:08,42.805,6.029,CST-1368DR,4356,4739,11556,01.204,551
2023-03-12T05:40:10,42.805,6.029,CST-1368DR,4356,4742,11563,01.202,551
2023-03-12T05:43:12,42.805,6.029,CST-1368DR,4356,4743,11566,01.201,551
2023-03-12T05:46:13,42.805,6.029,CST-1368DR,4356,4739,11557,01.204,551
2023-03-12T05:49:15,42.805,6.029,CST-1368DR,4356,4710,11485,01.229,551
2023-03-12T05:52:16,42.805,6.029,CST-1368DR,4356,4739,11556,01.204,551
2023-03-12T05:55:18,42.805,6.029,CST-1368DR,4356,4739,11555,01.205,551
2023-03-12T05:58:19,42.805,6.029,CST-1368DR,4356,4740,11558,01.204,551
2023-03-12T06:01:21,42.805,6.029,CST-1368DR,4356,4732,11540,01.210,551
2023-03-12T06:04:23,42.805,6.029,CST-1368DR,4356,4739,11556,01.204,551
2023-03-12T06:07:24,42.805,6.029,CST-1368DR,4356,4738,11553,01.205,551
2023-03-12T06:10:26,42.805,6.029,CST-1368DR,4356,4739,11556,01.204,551
2023-03-12T06:13:27,42.805,6.029,CST-1368DR,4356,4737,11550,01.206,551
2023-03-12T06:16:29,42.805,6.029,CST-1368DR,4356,4738,11555,01.205,551
2023-03-12T06:19:30,42.805,6.029,CST-1368DR,4356,4737,11550,01.206,551
2023-03-12T06:22:32,42.805,6.029,CST-1368DR,4356,4739,11557,01.204,551
2023-03-12T06:25:34,42.805,6.029,CST-1368DR,4356,4729,11531,01.213,551
2023-03-12T06:28:35,42.805,6.029,CST-1368DR,4356,4737,11552,01.206,551
2023-03-12T06:31:37,42.805,6.029,CST-1368DR,4356,4736,11549,01.207,551
2023-03-12T06:34:38,42.805,6.029,CST-1368DR,4356,4735,11547,01.207,551
2023-03-12T06:37:40,42.805,6.029,CST-1368DR,4356,4737,11552,01.206,551
2023-03-12T06:40:42,42.805,6.029,CST-1368DR,4356,4742,11563,01.202,551
2023-03-12T06:43:43,42.805,6.029,CST-1368DR,4356,4739,11555,01.205,551
2023-03-12T06:46:45,42.805,6.029,CST-1368DR,4356,4743,11567,01.201,551
2023-03-12T06:49:46,42.805,6.029,CST-1368DR,4356,4736,11548,01.207,551
2023-03-12T06:52:48,42.805,6.029,CST-1368DR,4356,4736,11549,01.207,551
2023-03-12T06:55:49,42.805,6.029,CST-1368DR,4356,4739,11555,01.205,551
2023-03-12T06:58:51,42.805,6.029,CST-1368DR,4356,4737,11550,01.206,551
2023-03-12T07:01:53,42.805,6.029,CST-1368DR,4356,4736,11549,01.207,551
2023-03-12T07:04:54,42.805,6.029,CST-1368DR,4356,4740,11559,01.203,551
2023-03-12T07:07:56,42.805,6.029,CST-1368DR,4356,4737,11552,01.206,551
2023-03-12T07:10:57,42.805,6.029,CST-1368DR,4356,4742,11564,01.202,551
2023-03-12T07:13:59,42.805,6.029,CST-1368DR,4356,4738,11555,01.205,551
2023-03-12T07:17:00,42.805,6.029,CST-1368DR,4356,4737,11552,01.206,551
2023-03-12T07:20:02,42.805,6.029,CST-1368DR,4356,4738,11553,01.205,551
2023-03-12T07:23:04,42.805,6.029,CST-1368DR,4356,4730,11534,01.212,551
2023-03-12T07:26:05,42.805,6.029,CST-1368DR,4356,4739,11556,01.204,551
2023-03-12T07:29:07,42.805,6.029,CST-1368DR,4356,4740,11559,01.203,551
2023-03-12T07:32:08,42.805,6.029,CST-1368DR,4356,4739,11557,01.204,551
2023-03-12T07:35:10,42.805,6.029,CST-1368DR,4356,4737,11552,01.206,551
2023-03-12T07:38:11,42.805,6.029,CST-1368DR,4356,4739,11556,01.204,551
2023-03-12T07:41:13,42.805,6.029,CST-1368DR,4356,4741,11560,01.203,551
2023-03-12T07:44:15,42.805,6.029,CST-1368DR,4356,4739,11557,01.204,551
2023-03-12T07:47:16,42.805,6.029,CST-1368DR,4356,4737,11552,01.206,551
2023-03-12T07:50:18,42.805,6.029,CST-1368DR,4356,4737,11552,01.206,551
2023-03-12T07:53:19,42.805,6.029,CST-1368DR,4356,4737,11552,01.206,551
2023-03-12T07:56:21,42.805,6.029,CST-1368DR,4356,4737,11550,01.206,551
2023-03-12T07:59:23,42.805,6.029,CST-1368DR,4356,4736,11548,01.207,551
2023-03-12T08:02:24,42.805,6.029,CST-1368DR,4356,4735,11547,01.207,551
2023-03-12T08:05:26,42.805,6.029,CST-1368DR,4356,4738,11555,01.205,551
2023-03-12T08:08:27,42.805,6.029,CST-1368DR,4356,4737,11550,01.206,551
2023-03-12T08:11:29,42.805,6.029,CST-1368DR,4356,4735,11547,01.207,551
2023-03-12T08:14:30,42.805,6.029,CST-1368DR,4356,4737,11552,01.206,551
2023-03-12T08:17:32,42.805,6.029,CST-1368DR,4356,4736,11549,01.207,551
2023-03-12T08:20:34,42.805,6.029,CST-1368DR,4356,4742,11563,01.202,551
2023-03-12T08:23:35,42.805,6.029,CST-1368DR,4356,4737,11552,01.206,551
2023-03-12T08:26:37,42.805,6.029,CST-1368DR,4356,4729,11531,01.213,551
2023-03-12T08:29:38,42.805,6.029,CST-1368DR,4356,4738,11554,01.205,551
2023-03-12T08:32:40,42.805,6.029,CST-1368DR,4356,4736,11550,01.206,551
2023-03-12T08:35:41,42.805,6.029,CST-1368DR,4356,4734,11543,01.209,551
2023-03-12T08:38:43,42.805,6.029,CST-1368DR,4356,4738,11554,01.205,551
2023-03-12T08:41:45,42.805,6.029,CST-1368DR,4356,4737,11552,01.206,551
2023-03-12T08:44:46,42.805,6.029,CST-1368DR,4356,4733,11542,01.209,551
2023-03-12T08:47:48,42.805,6.029,CST-1368DR,4356,4737,11552,01.206,551
2023-03-12T08:50:49,42.805,6.029,CST-1368DR,4356,4740,11558,01.204,551
2023-03-12T08:53:51,42.805,6.029,CST-1368DR,4356,4735,11547,01.207,551
2023-03-12T08:56:53,42.805,6.029,CST-1368DR,4356,4739,11556,01.204,551
2023-03-12T08:59:54,42.805,6.029,CST-1368DR,4356,4736,11549,01.207,551
2023-03-12T09:02:56,42.805,6.029,CST-1368DR,4356,4735,11546,01.208,551
2023-03-12T09:05:57,42.805,6.029,CST-1368DR,4356,4737,11551,01.206,551
2023-03-12T09:08:59,42.805,6.029,CST-1368DR,4356,4737,11551,01.206,551
2023-03-12T09:12:00,42.805,6.029,CST-1368DR,4356,4731,11536,01.211,551
2023-03-12T09:15:02,42.805,6.029,CST-1368DR,4356,4736,11549,01.207,551
2023-03-12T09:18:04,42.805,6.029,CST-1368DR,4356,4737,11551,01.206,551
2023-03-12T09:21:05,42.805,6.029,CST-1368DR,4356,4737,11552,01.206,551
2023-03-12T09:24:07,42.805,6.029,CST-1368DR,4356,4734,11544,01.209,551
2023-03-12T09:27:08,42.805,6.029,CST-1368DR,4356,4741,11561,01.203,551
2023-03-12T09:30:10,42.805,6.029,CST-1368DR,4356,4737,11551,01.206,551
2023-03-12T09:33:11,42.805,6.029,CST-1368DR,4356,4737,11551,01.206,551
2023-03-12T09:36:13,42.805,6.029,CST-1368DR,4356,4732,11539,01.210,551
2023-03-12T09:39:15,42.805,6.029,CST-1368DR,4356,4732,11540,01.210,551
2023-03-12T09:42:16,42.805,6.029,CST-1368DR,4356,4733,11542,01.209,551
2023-03-12T09:45:18,42.805,6.029,CST-1368DR,4356,4735,11547,01.207,551
2023-03-12T09:48:19,42.805,6.029,CST-1368DR,4356,4734,11544,01.209,551
2023-03-12T09:51:21,42.805,6.029,CST-1368DR,4356,4736,11548,01.207,551
2023-03-12T09:54:23,42.805,6.029,CST-1368DR,4356,4733,11541,01.210,551
2023-03-12T09:57:24,42.805,6.029,CST-1368DR,4356,4736,11549,01.207,551
2023-03-12T10:00:26,42.805,6.029,CST-1368DR,4356,4739,11555,01.205,551
2023-03-12T10:03:27,42.805,6.029,CST-1368DR,4356,4735,11547,01.207,551
2023-03-12T10:06:29,42.805,6.029,CST-1368DR,4356,4733,11541,01.210,551
2023-03-12T10:09:30,42.805,6.029,CST-1368DR,4356,4732,11539,01.210,551
2023-03-12T10:12:32,42.805,6.029,CST-1368DR,4355,4722,11518,01.218,551
2023-03-12T10:15:34,42.805,6.029,CST-1368DR,4356,4734,11544,01.209,551
2023-03-12T10:18:35,42.805,6.029,CST-1368DR,4356,4727,11527,01.214,551
2023-03-12T10:21:37,42.805,6.029,CST-1368DR,4355,4736,11552,01.206,551
2023-03-12T10:24:38,42.805,6.029,CST-1368DR,4356,4731,11538,01.211,551
2023-03-12T10:27:40,42.805,6.029,CST-1368DR,4356,4742,11563,01.202,551
2023-03-12T10:30:41,42.805,6.029,CST-1368DR,4356,4735,11547,01.207,551
2023-03-12T10:33:43,42.805,6.029,CST-1368DR,4356,4734,11544,01.209,551
2023-03-12T10:36:45,42.805,6.029,CST-1368DR,4356,4733,11542,01.209,551
2023-03-12T10:39:46,42.805,6.029,CST-1368DR,4356,4739,11555,01.205,551
2023-03-12T10:42:48,42.805,6.029,CST-1368DR,4356,4730,11535,01.212,551
2023-03-12T10:45:49,42.805,6.029,CST-1368DR,4356,4733,11541,01.210,551
2023-03-12T10:48:51,42.805,6.029,CST-1368DR,4356,4730,11535,01.212,551
2023-03-12T10:51:53,42.805,6.029,CST-1368DR,4355,4733,11544,01.209,551
2023-03-12T10:54:54,42.805,6.029,CST-1368DR,4356,4732,11539,01.210,551
2023-03-12T10:57:56,42.805,6.029,CST-1368DR,4356,4732,11538,01.211,551
2023-03-12T11:00:57,42.805,6.029,CST-1368DR,4356,4728,11530,01.213,551
2023-03-12T11:03:59,42.805,6.029,CST-1368DR,4356,4727,11527,01.214,551
2023-03-12T11:07:00,42.805,6.029,CST-1368DR,4356,4727,11527,01.214,551
2023-03-12T11:10:02,42.805,6.029,CST-1368DR,4356,4726,11525,01.215,551
2023-03-12T11:13:04,42.805,6.029,CST-1368DR,4356,4720,11509,01.221,551
2023-03-12T11:16:05,42.805,6.029,CST-1368DR,4355,4723,11519,01.217,551
2023-03-12T11:19:07,42.805,6.029,CST-1368DR,4355,4720,11512,01.220,551
2023-03-12T11:22:08,42.805,6.029,CST-1368DR,4355,4719,11511,01.220,551
2023-03-12T11:25:10,42.805,6.029,CST-1368DR,4355,4716,11503,01.223,551
2023-03-12T11:28:11,42.805,6.029,CST-1368DR,4356,4722,11515,01.219,551
2023-03-12T11:31:13,42.805,6.029,CST-1368DR,4355,4722,11517,01.218,551
2023-03-12T11:34:15,42.805,6.029,CST-1368DR,4355,4712,11493,01.226,551
2023-03-12T11:37:16,42.805,6.029,CST-1368DR,4356,4715,11497,01.225,551
2023-03-12T11:40:18,42.805,6.029,CST-1368DR,4355,4717,11504,01.222,551
2023-03-12T11:43:19,42.805,6.029,CST-1368DR,4355,4714,11498,01.224,551
2023-03-12T11:46:21,42.805,6.029,CST-1368DR,4355,4707,11480,01.231,551
2023-03-12T11:49:23,42.805,6.029,CST-1368DR,4355,4713,11495,01.226,551
2023-03-12T11:52:24,42.805,6.029,CST-1368DR,4355,4715,11501,01.223,551
2023-03-12T11:55:26,42.805,6.029,CST-1368DR,4355,4705,11477,01.232,551
2023-03-12T11:58:27,42.805,6.029,CST-1368DR,4355,4702,11468,01.235,551
2023-03-12T12:01:29,42.805,6.029,CST-1368DR,4355,4703,11471,01.234,551
2023-03-12T12:04:30,42.805,6.029,CST-1368DR,4355,4704,11474,01.233,551
2023-03-12T12:07:32,42.805,6.029,CST-1368DR,4355,4694,11450,01.241,551
2023-03-12T12:10:34,42.805,6.029,CST-1368DR,4355,4696,11453,01.240,551
2023-03-12T12:13:35,42.805,6.029,CST-1368DR,4355,4703,11470,01.234,551
2023-03-12T12:16:37,42.805,6.029,CST-1368DR,4355,4696,11455,01.239,551
2023-03-12T12:19:38,42.805,6.029,CST-1368DR,4355,4694,11450,01.241,551
2023-03-12T12:22:40,42.805,6.029,CST-1368DR,4355,4721,11516,01.218,551
2023-03-12T12:25:41,42.805,6.029,CST-1368DR,4355,4699,11460,01.238,551
2023-03-12T12:28:43,42.805,6.029,CST-1368DR,4355,4693,11447,01.242,551
2023-03-12T12:31:45,42.805,6.029,CST-1368DR,4355,4699,11460,01.238,551
2023-03-12T12:34:46,42.805,6.029,CST-1368DR,4355,4692,11444,01.243,551
2023-03-12T12:37:48,42.805,6.029,CST-1368DR,4355,4695,11452,01.241,551
2023-03-12T12:40:49,42.805,6.029,CST-1368DR,4355,4694,11448,01.242,551
2023-03-12T12:43:51,42.805,6.029,CST-1368DR,4355,4697,11456,01.239,551
2023-03-12T12:46:53,42.805,6.029,CST-1368DR,4355,4698,11458,01.238,551
2023-03-12T12:49:54,42.805,6.029,CST-1368DR,4355,4699,11461,01.237,551
2023-03-12T12:52:56,42.805,6.029,CST-1368DR,4355,4695,11450,01.241,551
2023-03-12T12:55:57,42.805,6.029,CST-1368DR,4355,4695,11450,01.241,551
2023-03-12T12:58:59,42.805,6.029,CST-1368DR,4355,4698,11460,01.238,551
2023-03-12T13:02:00,42.805,6.029,CST-1368DR,4355,4693,11447,01.242,551
2023-03-12T13:05:02,42.805,6.029,CST-1368DR,4355,4696,11453,01.240,551
2023-03-12T13:08:04,42.805,6.029,CST-1368DR,4355,4696,11453,01.240,551
2023-03-12T13:11:05,42.805,6.029,CST-1368DR,4355,4695,11451,01.241,551
2023-03-12T13:14:07,42.805,6.029,CST-1368DR,4355,4693,11446,01.243,551
2023-03-12T13:17:08,42.805,6.029,CST-1368DR,4355,4700,11464,01.236,551
2023-03-12T13:20:10,42.805,6.029,CST-1368DR,4355,4692,11443,01.244,551
2023-03-12T13:23:11,42.805,6.029,CST-1368DR,4355,4695,11452,01.241,551
2023-03-12T13:26:13,42.805,6.029,CST-1368DR,4355,4690,11438,01.245,551
2023-03-12T13:29:15,42.805,6.029,CST-1368DR,4355,4696,11453,01.240,551
2023-03-12T13:32:16,42.805,6.029,CST-1368DR,4355,4697,11455,01.239,551
2023-03-12T13:35:18,42.805,6.029,CST-1368DR,4355,4693,11446,01.243,551
2023-03-12T13:38:19,42.805,6.029,CST-1368DR,4355,4698,11458,01.238,551
2023-03-12T13:41:21,42.805,6.029,CST-1368DR,4355,4696,11454,01.240,551
2023-03-12T13:44:22,42.805,6.029,CST-1368DR,4355,4701,11467,01.235,551
2023-03-12T13:47:24,42.805,6.029,CST-1368DR,4355,4699,11461,01.237,551
2023-03-12T13:50:26,42.805,6.029,CST-1368DR,4355,4691,11441,01.244,551
2023-03-12T13:53:27,42.805,6.029,CST-1368DR,4355,4694,11449,01.242,551
2023-03-12T13:56:29,42.805,6.029,CST-1368DR,4355,4697,11457,01.239,551
2023-03-12T13:59:30,42.805,6.029,CST-1368DR,4355,4698,11458,01.238,551
2023-03-12T14:02:32,42.805,6.029,CST-1368DR,4355,4699,11460,01.238,551
2023-03-12T14:05:34,42.805,6.029,CST-1368DR,4355,4699,11461,01.237,551
2023-03-12T14:08:35,42.805,6.029,CST-1368DR,4355,4696,11453,01.240,551
2023-03-12T14:11:37,42.805,6.029,CST-1368DR,4355,4699,11461,01.237,551
2023-03-12T14:14:38,42.805,6.029,CST-1368DR,4355,4701,11466,01.236,551
2023-03-12T14:17:40,42.805,6.029,CST-1368DR,4355,4701,11467,01.235,551
2023-03-12T14:20:41,42.805,6.029,CST-1368DR,4355,4701,11465,01.236,551
2023-03-12T14:23:43,42.805,6.029,CST-1368DR,4355,4697,11456,01.239,551
2023-03-12T14:26:45,42.805,6.029,CST-1368DR,4355,4700,11463,01.237,551
2023-03-12T14:29:46,42.805,6.029,CST-1368DR,4355,4705,11476,01.232,551
2023-03-12T14:32:48,42.805,6.029,CST-1368DR,4355,4702,11469,01.235,551
2023-03-12T14:35:49,42.805,6.029,CST-1368DR,4355,4698,11459,01.238,551
2023-03-12T14:38:51,42.805,6.029,CST-1368DR,4355,4698,11458,01.238,551
2023-03-12T14:41:53,42.805,6.029,CST-1368DR,4355,4698,11458,01.238,551
2023-03-12T14:44:54,42.805,6.029,CST-1368DR,4355,4699,11461,01.237,551
2023-03-12T14:47:56,42.805,6.029,CST-1368DR,4355,4701,11466,01.236,551
2023-03-12T14:50:57,42.805,6.029,CST-1368DR,4355,4702,11468,01.235,551
2023-03-12T14:53:59,42.805,6.029,CST-1368DR,4355,4704,11472,01.234,551
2023-03-12T14:57:00,42.805,6.029,CST-1368DR,4355,4700,11464,01.236,551
2023-03-12T15:00:02,42.805,6.029,CST-1368DR,4355,4699,11461,01.237,551
2023-03-12T15:03:04,42.805,6.029,CST-1368DR,4355,4699,11462,01.237,551
2023-03-12T15:06:05,42.805,6.029,CST-1368DR,4355,4710,11488,01.228,551
2023-03-12T15:09:07,42.805,6.029,CST-1368DR,4355,4714,11497,01.225,551
2023-03-12T15:12:08,42.805,6.029,CST-1368DR,4355,4722,11517,01.218,551
2023-03-12T15:15:10,42.805,6.029,CST-1368DR,4355,4718,11508,01.221,551
2023-03-12T15:18:11,42.805,6.029,CST-1368DR,4355,4713,11496,01.225,551
2023-03-12T15:21:13,42.805,6.029,CST-1368DR,4355,4715,11500,01.224,551
2023-03-12T15:24:15,42.805,6.029,CST-1368DR,4355,4717,11505,01.222,551
2023-03-12T15:27:16,42.805,6.029,CST-1368DR,4355,4720,11512,01.220,551
2023-03-12T15:30:18,42.805,6.029,CST-1368DR,4355,4719,11509,01.221,551
2023-03-12T15:33:19,42.805,6.029,CST-1368DR,4355,4720,11513,01.219,551
2023-03-12T15:36:21,42.805,6.029,CST-1368DR,4355,4714,11497,01.225,551
2023-03-12T15:39:22,42.805,6.029,CST-1368DR,4355,4716,11502,01.223,551
2023-03-12T15:42:24,42.805,6.029,CST-1368DR,4355,4712,11494,01.226,551
2023-03-12T15:45:26,42.805,6.029,CST-1368DR,4355,4715,11500,01.224,551
2023-03-12T15:48:27,42.805,6.029,CST-1368DR,4355,4715,11501,01.223,551
2023-03-12T15:51:29,42.805,6.029,CST-1368DR,4355,4714,11497,01.225,551
2023-03-12T15:54:30,42.805,6.029,CST-1368DR,4355,4714,11498,01.224,551
2023-03-12T15:57:32,42.805,6.029,CST-1368DR,4355,4714,11497,01.225,551
2023-03-12T16:00:34,42.805,6.029,CST-1368DR,4355,4717,11506,01.222,551
2023-03-12T16:03:35,42.805,6.029,CST-1368DR,4355,4717,11505,01.222,551
2023-03-12T16:06:37,42.805,6.029,CST-1368DR,4355,4715,11501,01.223,551
2023-03-12T16:09:38,42.805,6.029,CST-1368DR,4355,4713,11496,01.225,551
2023-03-12T16:12:40,42.805,6.029,CST-1368DR,4355,4712,11493,01.226,551
2023-03-12T16:15:41,42.805,6.029,CST-1368DR,4355,4709,11485,01.229,551
2023-03-12T16:18:43,42.805,6.029,CST-1368DR,4355,4715,11500,01.224,551
2023-03-12T16:21:45,42.805,6.029,CST-1368DR,4355,4711,11491,01.227,551
2023-03-12T16:24:46,42.805,6.029,CST-1368DR,4355,4710,11487,01.228,551
2023-03-12T16:27:48,42.805,6.029,CST-1368DR,4355,4714,11497,01.225,551
2023-03-12T16:30:49,42.805,6.029,CST-1368DR,4355,4709,11485,01.229,551
2023-03-12T16:33:51,42.805,6.029,CST-1368DR,4355,4711,11489,01.228,551
2023-03-12T16:36:52,42.805,6.029,CST-1368DR,4355,4707,11480,01.231,551